Year,Month,Day,Hour,Minute,Value (Times are PST for temperature in C)
2019,06,13,00,00,18.70
2019,06,13,00,01,18.70
2019,06,13,00,02,18.70
2019,06,13,00,03,18.70
2019,06,13,00,04,18.70
2019,06,13,00,05,18.70
2019,06,13,00,06,18.60
2019,06,13,00,07,18.60
2019,06,13,00,08,18.70
2019,06,13,00,09,18.60
2019,06,13,00,10,18.60
2019,06,13,00,11,18.60
2019,06,13,00,12,18.60
2019,06,13,00,13,18.60
2019,06,13,00,14,18.60
2019,06,13,00,15,18.60
2019,06,13,00,16,18.60
2019,06,13,00,17,18.60
2019,06,13,00,18,18.60
2019,06,13,00,19,18.60
2019,06,13,00,20,18.60
2019,06,13,00,21,18.60
2019,06,13,00,22,18.60
2019,06,13,00,23,18.60
2019,06,13,00,24,18.60
2019,06,13,00,25,18.60
2019,06,13,00,26,18.60
2019,06,13,00,27,18.60
2019,06,13,00,28,18.50
2019,06,13,00,29,18.50
2019,06,13,00,30,18.60
2019,06,13,00,31,18.60
2019,06,13,00,32,18.60
2019,06,13,00,33,18.70
2019,06,13,00,34,18.90
2019,06,13,00,35,19.10
2019,06,13,00,36,19.40
2019,06,13,00,37,19.60
2019,06,13,00,38,19.70
2019,06,13,00,39,19.70
2019,06,13,00,40,19.70
2019,06,13,00,41,19.70
2019,06,13,00,42,19.70
2019,06,13,00,43,19.60
2019,06,13,00,44,19.60
2019,06,13,00,45,19.60
2019,06,13,00,46,19.60
2019,06,13,00,47,19.80
2019,06,13,00,48,20.00
2019,06,13,00,49,20.20
2019,06,13,00,50,20.40
2019,06,13,00,51,20.50
2019,06,13,00,52,20.60
2019,06,13,00,53,20.80
2019,06,13,00,54,20.90
2019,06,13,00,55,20.90
2019,06,13,00,56,21.00
2019,06,13,00,57,21.20
2019,06,13,00,58,21.30
2019,06,13,00,59,21.50
2019,06,13,01,00,21.60
2019,06,13,01,01,21.60
2019,06,13,01,02,21.70
2019,06,13,01,03,21.80
2019,06,13,01,04,21.80
2019,06,13,01,05,21.80
2019,06,13,01,06,21.80
2019,06,13,01,07,21.80
2019,06,13,01,08,21.80
2019,06,13,01,09,21.80
2019,06,13,01,10,21.80
2019,06,13,01,11,21.70
2019,06,13,01,12,21.60
2019,06,13,01,13,21.60
2019,06,13,01,14,21.40
2019,06,13,01,15,21.40
2019,06,13,01,16,21.30
2019,06,13,01,17,21.30
2019,06,13,01,18,21.30
2019,06,13,01,19,21.30
2019,06,13,01,20,21.20
2019,06,13,01,21,21.10
2019,06,13,01,22,21.00
2019,06,13,01,23,20.90
2019,06,13,01,24,20.80
2019,06,13,01,25,20.70
2019,06,13,01,26,20.50
2019,06,13,01,27,20.40
2019,06,13,01,28,20.20
2019,06,13,01,29,20.10
2019,06,13,01,30,19.90
2019,06,13,01,31,19.80
2019,06,13,01,32,19.60
2019,06,13,01,33,19.50
2019,06,13,01,34,19.40
2019,06,13,01,35,19.30
2019,06,13,01,36,19.20
2019,06,13,01,37,19.10
2019,06,13,01,38,19.10
2019,06,13,01,39,19.10
2019,06,13,01,40,19.00
2019,06,13,01,41,18.90
2019,06,13,01,42,18.90
2019,06,13,01,43,18.90
2019,06,13,01,44,18.90
2019,06,13,01,45,18.80
2019,06,13,01,46,18.70
2019,06,13,01,47,18.70
2019,06,13,01,48,18.70
2019,06,13,01,49,18.70
2019,06,13,01,50,18.60
2019,06,13,01,51,18.60
2019,06,13,01,52,18.60
2019,06,13,01,53,18.60
2019,06,13,01,54,18.50
2019,06,13,01,55,18.50
2019,06,13,01,56,18.40
2019,06,13,01,57,18.40
2019,06,13,01,58,18.40
2019,06,13,01,59,18.30
2019,06,13,02,00,18.30
2019,06,13,02,01,18.30
2019,06,13,02,02,18.20
2019,06,13,02,03,18.20
2019,06,13,02,04,18.20
2019,06,13,02,05,18.20
2019,06,13,02,06,18.20
2019,06,13,02,07,18.20
2019,06,13,02,08,18.20
2019,06,13,02,09,18.20
2019,06,13,02,10,18.20
2019,06,13,02,11,18.20
2019,06,13,02,12,18.10
2019,06,13,02,13,18.10
2019,06,13,02,14,18.10
2019,06,13,02,15,18.10
2019,06,13,02,16,18.10
2019,06,13,02,17,18.10
2019,06,13,02,18,18.10
2019,06,13,02,19,18.10
2019,06,13,02,20,18.10
2019,06,13,02,21,18.10
2019,06,13,02,22,18.10
2019,06,13,02,23,18.10
2019,06,13,02,24,18.00
2019,06,13,02,25,17.90
2019,06,13,02,26,17.90
2019,06,13,02,27,17.90
2019,06,13,02,28,17.90
2019,06,13,02,29,17.90
2019,06,13,02,30,17.90
2019,06,13,02,31,17.90
2019,06,13,02,32,17.90
2019,06,13,02,33,17.80
2019,06,13,02,34,17.80
2019,06,13,02,35,17.80
2019,06,13,02,36,17.70
2019,06,13,02,37,17.70
2019,06,13,02,38,17.70
2019,06,13,02,39,17.70
2019,06,13,02,40,17.70
2019,06,13,02,41,17.70
2019,06,13,02,42,17.70
2019,06,13,02,43,17.60
2019,06,13,02,44,17.60
2019,06,13,02,45,17.60
2019,06,13,02,46,17.50
2019,06,13,02,47,17.50
2019,06,13,02,48,17.50
2019,06,13,02,49,17.40
2019,06,13,02,50,17.40
2019,06,13,02,51,17.40
2019,06,13,02,52,17.30
2019,06,13,02,53,17.30
2019,06,13,02,54,17.30
2019,06,13,02,55,17.30
2019,06,13,02,56,17.30
2019,06,13,02,57,17.30
2019,06,13,02,58,17.30
2019,06,13,02,59,17.30
2019,06,13,03,00,17.30
2019,06,13,03,01,17.30
2019,06,13,03,02,17.30
2019,06,13,03,03,17.30
2019,06,13,03,04,17.30
2019,06,13,03,05,17.30
2019,06,13,03,06,17.30
2019,06,13,03,07,17.30
2019,06,13,03,08,17.30
2019,06,13,03,09,17.30
2019,06,13,03,10,17.30
2019,06,13,03,11,17.30
2019,06,13,03,12,17.30
2019,06,13,03,13,17.30
2019,06,13,03,14,17.30
2019,06,13,03,15,17.30
2019,06,13,03,16,17.30
2019,06,13,03,17,17.30
2019,06,13,03,18,17.30
2019,06,13,03,19,17.30
2019,06,13,03,20,17.30
2019,06,13,03,21,17.30
2019,06,13,03,22,17.30
2019,06,13,03,23,17.20
2019,06,13,03,24,17.20
2019,06,13,03,25,17.20
2019,06,13,03,26,17.20
2019,06,13,03,27,17.20
2019,06,13,03,28,17.20
2019,06,13,03,29,17.20
2019,06,13,03,30,17.10
2019,06,13,03,31,17.10
2019,06,13,03,32,17.10
2019,06,13,03,33,17.10
2019,06,13,03,34,17.00
2019,06,13,03,35,17.00
2019,06,13,03,36,17.00
2019,06,13,03,37,17.00
2019,06,13,03,38,17.00
2019,06,13,03,39,16.90
2019,06,13,03,40,16.90
2019,06,13,03,41,16.90
2019,06,13,03,42,16.90
2019,06,13,03,43,16.80
2019,06,13,03,44,16.80
2019,06,13,03,45,16.80
2019,06,13,03,46,16.80
2019,06,13,03,47,16.70
2019,06,13,03,48,16.70
2019,06,13,03,49,16.70
2019,06,13,03,50,16.70
2019,06,13,03,51,16.70
2019,06,13,03,52,16.70
2019,06,13,03,53,16.70
2019,06,13,03,54,16.70
2019,06,13,03,55,16.70
2019,06,13,03,56,16.70
2019,06,13,03,57,16.70
2019,06,13,03,58,16.60
2019,06,13,03,59,16.60
2019,06,13,04,00,16.60
2019,06,13,04,01,16.50
2019,06,13,04,02,16.40
2019,06,13,04,03,16.40
2019,06,13,04,04,16.40
2019,06,13,04,05,16.40
2019,06,13,04,06,16.40
2019,06,13,04,07,16.40
2019,06,13,04,08,16.40
2019,06,13,04,09,16.40
2019,06,13,04,10,16.40
2019,06,13,04,11,16.40
2019,06,13,04,12,16.40
2019,06,13,04,13,16.40
2019,06,13,04,14,16.40
2019,06,13,04,15,16.40
2019,06,13,04,16,16.40
2019,06,13,04,17,16.40
2019,06,13,04,18,16.40
2019,06,13,04,19,16.40
2019,06,13,04,20,16.40
2019,06,13,04,21,16.40
2019,06,13,04,22,16.40
2019,06,13,04,23,16.30
2019,06,13,04,24,16.30
2019,06,13,04,25,16.30
2019,06,13,04,26,16.30
2019,06,13,04,27,16.30
2019,06,13,04,28,16.30
2019,06,13,04,29,16.20
2019,06,13,04,30,16.20
2019,06,13,04,31,16.20
2019,06,13,04,32,16.20
2019,06,13,04,33,16.20
2019,06,13,04,34,16.20
2019,06,13,04,35,16.20
2019,06,13,04,36,16.10
2019,06,13,04,37,16.10
2019,06,13,04,38,16.10
2019,06,13,04,39,16.10
2019,06,13,04,40,16.10
2019,06,13,04,41,16.10
2019,06,13,04,42,16.10
2019,06,13,04,43,16.10
2019,06,13,04,44,16.10
2019,06,13,04,45,16.10
2019,06,13,04,46,16.10
2019,06,13,04,47,16.10
2019,06,13,04,48,16.10
2019,06,13,04,49,16.10
2019,06,13,04,50,16.10
2019,06,13,04,51,16.00
2019,06,13,04,52,15.90
2019,06,13,04,53,15.90
2019,06,13,04,54,15.90
2019,06,13,04,55,15.90
2019,06,13,04,56,15.80
2019,06,13,04,57,15.80
2019,06,13,04,58,15.80
2019,06,13,04,59,15.70
2019,06,13,05,00,15.70
2019,06,13,05,01,15.60
2019,06,13,05,02,15.60
2019,06,13,05,03,15.50
2019,06,13,05,04,15.50
2019,06,13,05,05,15.40
2019,06,13,05,06,15.30
2019,06,13,05,07,15.30
2019,06,13,05,08,15.30
2019,06,13,05,09,15.20
2019,06,13,05,10,15.20
2019,06,13,05,11,15.10
2019,06,13,05,12,15.10
2019,06,13,05,13,15.10
2019,06,13,05,14,15.10
2019,06,13,05,15,15.00
2019,06,13,05,16,15.00
2019,06,13,05,17,15.00
2019,06,13,05,18,15.00
2019,06,13,05,19,15.00
2019,06,13,05,20,15.00
2019,06,13,05,21,15.00
2019,06,13,05,22,14.90
2019,06,13,05,23,15.00
2019,06,13,05,24,15.00
2019,06,13,05,25,15.00
2019,06,13,05,26,15.00
2019,06,13,05,27,15.00
2019,06,13,05,28,15.00
2019,06,13,05,29,15.00
2019,06,13,05,30,15.10
2019,06,13,05,31,15.10
2019,06,13,05,32,15.10
2019,06,13,05,33,15.10
2019,06,13,05,34,15.10
2019,06,13,05,35,15.10
2019,06,13,05,36,15.10
2019,06,13,05,37,15.20
2019,06,13,05,38,15.20
2019,06,13,05,39,15.20
2019,06,13,05,40,15.20
2019,06,13,05,41,15.20
2019,06,13,05,42,15.20
2019,06,13,05,43,15.30
2019,06,13,05,44,15.30
2019,06,13,05,45,15.30
2019,06,13,05,46,15.30
2019,06,13,05,47,15.30
2019,06,13,05,48,15.30
2019,06,13,05,49,15.30
2019,06,13,05,50,15.40
2019,06,13,05,51,15.40
2019,06,13,05,52,15.50
2019,06,13,05,53,15.50
2019,06,13,05,54,15.60
2019,06,13,05,55,15.60
2019,06,13,05,56,15.70
2019,06,13,05,57,15.80
2019,06,13,05,58,15.80
2019,06,13,05,59,15.90
2019,06,13,06,00,15.90
2019,06,13,06,01,15.90
2019,06,13,06,02,15.90
2019,06,13,06,03,15.90
2019,06,13,06,04,15.90
2019,06,13,06,05,16.00
2019,06,13,06,06,15.90
2019,06,13,06,07,15.90
2019,06,13,06,08,16.00
2019,06,13,06,09,16.10
2019,06,13,06,10,16.10
2019,06,13,06,11,16.10
2019,06,13,06,12,16.10
2019,06,13,06,13,16.20
2019,06,13,06,14,16.20
2019,06,13,06,15,16.30
2019,06,13,06,16,16.40
2019,06,13,06,17,16.40
2019,06,13,06,18,16.50
2019,06,13,06,19,16.60
2019,06,13,06,20,16.60
2019,06,13,06,21,16.70
2019,06,13,06,22,16.70
2019,06,13,06,23,16.70
2019,06,13,06,24,16.70
2019,06,13,06,25,16.80
2019,06,13,06,26,16.80
2019,06,13,06,27,16.90
2019,06,13,06,28,16.90
2019,06,13,06,29,16.90
2019,06,13,06,30,16.90
2019,06,13,06,31,16.90
2019,06,13,06,32,16.90
2019,06,13,06,33,16.90
2019,06,13,06,34,16.90
2019,06,13,06,35,17.00
2019,06,13,06,36,17.00
2019,06,13,06,37,17.00
2019,06,13,06,38,17.00
2019,06,13,06,39,17.00
2019,06,13,06,40,17.00
2019,06,13,06,41,17.10
2019,06,13,06,42,17.10
2019,06,13,06,43,17.10
2019,06,13,06,44,17.10
2019,06,13,06,45,17.00
2019,06,13,06,46,17.00
2019,06,13,06,47,17.00
2019,06,13,06,48,17.00
2019,06,13,06,49,17.00
2019,06,13,06,50,16.90
2019,06,13,06,51,16.90
2019,06,13,06,52,16.90
2019,06,13,06,53,16.90
2019,06,13,06,54,16.90
2019,06,13,06,55,16.90
2019,06,13,06,56,16.90
2019,06,13,06,57,16.90
2019,06,13,06,58,16.90
2019,06,13,06,59,17.00
2019,06,13,07,00,17.00
2019,06,13,07,01,17.00
2019,06,13,07,02,17.00
2019,06,13,07,03,17.10
2019,06,13,07,04,17.10
2019,06,13,07,05,17.10
2019,06,13,07,06,17.10
2019,06,13,07,07,17.20
2019,06,13,07,08,17.20
2019,06,13,07,09,17.20
2019,06,13,07,10,17.20
2019,06,13,07,11,17.20
2019,06,13,07,12,17.20
2019,06,13,07,13,17.20
2019,06,13,07,14,17.20
2019,06,13,07,15,17.20
2019,06,13,07,16,17.20
2019,06,13,07,17,17.20
2019,06,13,07,18,17.20
2019,06,13,07,19,17.20
2019,06,13,07,20,17.20
2019,06,13,07,21,17.20
2019,06,13,07,22,17.20
2019,06,13,07,23,17.20
2019,06,13,07,24,17.20
2019,06,13,07,25,17.20
2019,06,13,07,26,17.20
2019,06,13,07,27,17.20
2019,06,13,07,28,17.20
2019,06,13,07,29,17.20
2019,06,13,07,30,17.20
2019,06,13,07,31,17.20
2019,06,13,07,32,17.10
2019,06,13,07,33,17.10
2019,06,13,07,34,17.10
2019,06,13,07,35,17.10
2019,06,13,07,36,17.10
2019,06,13,07,37,17.00
2019,06,13,07,38,17.00
2019,06,13,07,39,17.00
2019,06,13,07,40,17.00
2019,06,13,07,41,17.00
2019,06,13,07,42,17.00
2019,06,13,07,43,17.00
2019,06,13,07,44,17.00
2019,06,13,07,45,17.00
2019,06,13,07,46,17.00
2019,06,13,07,47,17.00
2019,06,13,07,48,17.00
2019,06,13,07,49,17.00
2019,06,13,07,50,17.00
2019,06,13,07,51,17.00
2019,06,13,07,52,17.10
2019,06,13,07,53,17.10
2019,06,13,07,54,17.00
2019,06,13,07,55,17.00
2019,06,13,07,56,17.10
2019,06,13,07,57,17.10
2019,06,13,07,58,17.10
2019,06,13,07,59,17.10
2019,06,13,08,00,17.10
2019,06,13,08,01,17.10
2019,06,13,08,02,17.10
2019,06,13,08,03,17.10
2019,06,13,08,04,17.10
2019,06,13,08,05,17.10
2019,06,13,08,06,17.20
2019,06,13,08,07,17.20
2019,06,13,08,08,17.20
2019,06,13,08,09,17.30
2019,06,13,08,10,17.30
2019,06,13,08,11,17.30
2019,06,13,08,12,17.30
2019,06,13,08,13,17.30
2019,06,13,08,14,17.30
2019,06,13,08,15,17.30
2019,06,13,08,16,17.30
2019,06,13,08,17,17.30
2019,06,13,08,18,17.30
2019,06,13,08,19,17.30
2019,06,13,08,20,17.40
2019,06,13,08,21,17.40
2019,06,13,08,22,17.50
2019,06,13,08,23,17.50
2019,06,13,08,24,17.50
2019,06,13,08,25,17.50
2019,06,13,08,26,17.50
2019,06,13,08,27,17.50
2019,06,13,08,28,17.60
2019,06,13,08,29,17.60
2019,06,13,08,30,17.60
2019,06,13,08,31,17.60
2019,06,13,08,32,17.60
2019,06,13,08,33,17.60
2019,06,13,08,34,17.60
2019,06,13,08,35,17.50
2019,06,13,08,36,17.60
2019,06,13,08,37,17.50
2019,06,13,08,38,17.60
2019,06,13,08,39,17.70
2019,06,13,08,40,17.70
2019,06,13,08,41,17.70
2019,06,13,08,42,17.70
2019,06,13,08,43,17.70
2019,06,13,08,44,17.70
2019,06,13,08,45,17.70
2019,06,13,08,46,17.80
2019,06,13,08,47,17.80
2019,06,13,08,48,17.80
2019,06,13,08,49,17.80
2019,06,13,08,50,17.80
2019,06,13,08,51,17.80
2019,06,13,08,52,17.80
2019,06,13,08,53,17.80
2019,06,13,08,54,17.80
2019,06,13,08,55,17.80
2019,06,13,08,56,17.80
2019,06,13,08,57,17.90
2019,06,13,08,58,17.90
2019,06,13,08,59,17.90
2019,06,13,09,00,17.90
2019,06,13,09,01,17.90
2019,06,13,09,02,17.90
2019,06,13,09,03,17.90
2019,06,13,09,04,17.90
2019,06,13,09,05,17.90
2019,06,13,09,06,17.90
2019,06,13,09,07,17.90
2019,06,13,09,08,17.90
2019,06,13,09,09,17.90
2019,06,13,09,10,17.90
2019,06,13,09,11,17.90
2019,06,13,09,12,17.90
2019,06,13,09,13,17.90
2019,06,13,09,14,17.90
2019,06,13,09,15,17.90
2019,06,13,09,16,17.90
2019,06,13,09,17,17.90
2019,06,13,09,18,17.90
2019,06,13,09,19,17.90
2019,06,13,09,20,18.00
2019,06,13,09,21,18.10
2019,06,13,09,22,18.00
2019,06,13,09,23,17.90
2019,06,13,09,24,17.90
2019,06,13,09,25,17.90
2019,06,13,09,26,18.00
2019,06,13,09,27,18.10
2019,06,13,09,28,18.10
2019,06,13,09,29,18.10
2019,06,13,09,30,18.10
2019,06,13,09,31,18.20
2019,06,13,09,32,18.20
2019,06,13,09,33,18.20
2019,06,13,09,34,18.20
2019,06,13,09,35,18.20
2019,06,13,09,36,18.20
2019,06,13,09,37,18.20
2019,06,13,09,38,18.20
2019,06,13,09,39,18.20
2019,06,13,09,40,18.20
2019,06,13,09,41,18.20
2019,06,13,09,42,18.20
2019,06,13,09,43,18.20
2019,06,13,09,44,18.40
2019,06,13,09,45,18.50
2019,06,13,09,46,18.50
2019,06,13,09,47,18.60
2019,06,13,09,48,18.70
2019,06,13,09,49,18.70
2019,06,13,09,50,18.70
2019,06,13,09,51,18.70
2019,06,13,09,52,18.80
2019,06,13,09,53,18.80
2019,06,13,09,54,18.90
2019,06,13,09,55,18.90
2019,06,13,09,56,18.90
2019,06,13,09,57,18.90
2019,06,13,09,58,19.00
2019,06,13,09,59,19.10
2019,06,13,10,00,19.10
2019,06,13,10,01,19.10
2019,06,13,10,02,19.20
2019,06,13,10,03,19.30
2019,06,13,10,04,19.30
2019,06,13,10,05,19.40
2019,06,13,10,06,19.50
2019,06,13,10,07,19.60
2019,06,13,10,08,19.70
2019,06,13,10,09,19.70
2019,06,13,10,10,19.80
2019,06,13,10,11,19.80
2019,06,13,10,12,19.80
2019,06,13,10,13,19.80
2019,06,13,10,14,19.70
2019,06,13,10,15,19.70
2019,06,13,10,16,19.70
2019,06,13,10,17,19.70
2019,06,13,10,18,19.70
2019,06,13,10,19,19.70
2019,06,13,10,20,19.70
2019,06,13,10,21,19.80
2019,06,13,10,22,19.80
2019,06,13,10,23,19.80
2019,06,13,10,24,19.80
2019,06,13,10,25,19.90
2019,06,13,10,26,19.90
2019,06,13,10,27,19.90
2019,06,13,10,28,19.90
2019,06,13,10,29,19.90
2019,06,13,10,30,19.90
2019,06,13,10,31,19.90
2019,06,13,10,32,20.00
2019,06,13,10,33,20.10
2019,06,13,10,34,20.10
2019,06,13,10,35,20.10
2019,06,13,10,36,20.10
2019,06,13,10,37,20.10
2019,06,13,10,38,20.10
2019,06,13,10,39,20.10
2019,06,13,10,40,20.10
2019,06,13,10,41,20.20
2019,06,13,10,42,20.20
2019,06,13,10,43,20.20
2019,06,13,10,44,20.30
2019,06,13,10,45,20.30
2019,06,13,10,46,20.40
2019,06,13,10,47,20.40
2019,06,13,10,48,20.50
2019,06,13,10,49,20.50
2019,06,13,10,50,20.50
2019,06,13,10,51,20.50
2019,06,13,10,52,20.60
2019,06,13,10,53,20.60
2019,06,13,10,54,20.60
2019,06,13,10,55,20.70
2019,06,13,10,56,20.70
2019,06,13,10,57,20.80
2019,06,13,10,58,20.80
2019,06,13,10,59,20.90
2019,06,13,11,00,21.00
2019,06,13,11,01,21.10
2019,06,13,11,02,21.10
2019,06,13,11,03,21.20
2019,06,13,11,04,21.20
2019,06,13,11,05,21.20
2019,06,13,11,06,21.30
2019,06,13,11,07,21.30
2019,06,13,11,08,21.30
2019,06,13,11,09,21.30
2019,06,13,11,10,21.30
2019,06,13,11,11,21.20
2019,06,13,11,12,21.20
2019,06,13,11,13,21.30
2019,06,13,11,14,21.30
2019,06,13,11,15,21.30
2019,06,13,11,16,21.30
2019,06,13,11,17,21.40
2019,06,13,11,18,21.50
2019,06,13,11,19,21.60
2019,06,13,11,20,21.60
2019,06,13,11,21,21.60
2019,06,13,11,22,21.70
2019,06,13,11,23,21.70
2019,06,13,11,24,21.70
2019,06,13,11,25,21.80
2019,06,13,11,26,21.80
2019,06,13,11,27,21.80
2019,06,13,11,28,21.80
2019,06,13,11,29,21.80
2019,06,13,11,30,21.80
2019,06,13,11,31,21.80
2019,06,13,11,32,21.80
2019,06,13,11,33,21.80
2019,06,13,11,34,21.80
2019,06,13,11,35,21.90
2019,06,13,11,36,21.90
2019,06,13,11,37,21.90
2019,06,13,11,38,21.90
2019,06,13,11,39,21.80
2019,06,13,11,40,21.80
2019,06,13,11,41,21.80
2019,06,13,11,42,21.80
2019,06,13,11,43,21.70
2019,06,13,11,44,21.70
2019,06,13,11,45,21.70
2019,06,13,11,46,21.80
2019,06,13,11,47,21.80
2019,06,13,11,48,21.80
2019,06,13,11,49,21.80
2019,06,13,11,50,21.90
2019,06,13,11,51,22.00
2019,06,13,11,52,22.00
2019,06,13,11,53,22.10
2019,06,13,11,54,22.10
2019,06,13,11,55,22.20
2019,06,13,11,56,22.30
2019,06,13,11,57,22.20
2019,06,13,11,58,22.30
2019,06,13,11,59,22.30
2019,06,13,12,00,22.30
2019,06,13,12,01,22.30
2019,06,13,12,02,22.40
2019,06,13,12,03,22.40
2019,06,13,12,04,22.40
2019,06,13,12,05,22.40
2019,06,13,12,06,22.30
2019,06,13,12,07,22.30
2019,06,13,12,08,22.20
2019,06,13,12,09,22.20
2019,06,13,12,10,22.10
2019,06,13,12,11,22.00
2019,06,13,12,12,22.00
2019,06,13,12,13,21.90
2019,06,13,12,14,21.80
2019,06,13,12,15,21.80
2019,06,13,12,16,21.70
2019,06,13,12,17,21.70
2019,06,13,12,18,21.60
2019,06,13,12,19,21.60
2019,06,13,12,20,21.60
2019,06,13,12,21,21.60
2019,06,13,12,22,21.60
2019,06,13,12,23,21.60
2019,06,13,12,24,21.60
2019,06,13,12,25,21.60
2019,06,13,12,26,21.60
2019,06,13,12,27,21.60
2019,06,13,12,28,21.60
2019,06,13,12,29,21.60
2019,06,13,12,30,21.60
2019,06,13,12,31,21.60
2019,06,13,12,32,21.60
2019,06,13,12,33,21.60
2019,06,13,12,34,21.70
2019,06,13,12,35,21.70
2019,06,13,12,36,21.70
2019,06,13,12,37,21.80
2019,06,13,12,38,21.90
2019,06,13,12,39,22.00
2019,06,13,12,40,22.10
2019,06,13,12,41,22.10
2019,06,13,12,42,22.10
2019,06,13,12,43,22.20
2019,06,13,12,44,22.10
2019,06,13,12,45,22.00
2019,06,13,12,46,21.80
2019,06,13,12,47,21.70
2019,06,13,12,48,21.60
2019,06,13,12,49,21.70
2019,06,13,12,50,21.70
2019,06,13,12,51,21.80
2019,06,13,12,52,21.80
2019,06,13,12,53,21.80
2019,06,13,12,54,21.80
2019,06,13,12,55,21.90
2019,06,13,12,56,21.90
2019,06,13,12,57,21.90
2019,06,13,12,58,21.80
2019,06,13,12,59,21.80
2019,06,13,13,00,21.70
2019,06,13,13,01,21.80
2019,06,13,13,02,21.80
2019,06,13,13,03,21.90
2019,06,13,13,04,21.90
2019,06,13,13,05,21.90
2019,06,13,13,06,21.90
2019,06,13,13,07,22.00
2019,06,13,13,08,22.00
2019,06,13,13,09,21.90
2019,06,13,13,10,21.90
2019,06,13,13,11,21.90
2019,06,13,13,12,21.80
2019,06,13,13,13,21.70
2019,06,13,13,14,21.80
2019,06,13,13,15,21.80
2019,06,13,13,16,21.70
2019,06,13,13,17,21.70
2019,06,13,13,18,21.70
2019,06,13,13,19,21.60
2019,06,13,13,20,21.60
2019,06,13,13,21,21.50
2019,06,13,13,22,21.40
2019,06,13,13,23,21.40
2019,06,13,13,24,21.40
2019,06,13,13,25,21.40
2019,06,13,13,26,21.50
2019,06,13,13,27,21.60
2019,06,13,13,28,21.60
2019,06,13,13,29,21.60
2019,06,13,13,30,21.70
2019,06,13,13,31,21.80
2019,06,13,13,32,21.80
2019,06,13,13,33,21.80
2019,06,13,13,34,21.80
2019,06,13,13,35,21.90
2019,06,13,13,36,22.00
2019,06,13,13,37,22.10
2019,06,13,13,38,22.20
2019,06,13,13,39,22.20
2019,06,13,13,40,22.30
2019,06,13,13,41,22.40
2019,06,13,13,42,22.50
2019,06,13,13,43,22.50
2019,06,13,13,44,22.60
2019,06,13,13,45,22.60
2019,06,13,13,46,22.50
2019,06,13,13,47,22.40
2019,06,13,13,48,22.40
2019,06,13,13,49,22.30
2019,06,13,13,50,22.30
2019,06,13,13,51,22.20
2019,06,13,13,52,22.10
2019,06,13,13,53,22.00
2019,06,13,13,54,21.90
2019,06,13,13,55,21.80
2019,06,13,13,56,21.70
2019,06,13,13,57,21.50
2019,06,13,13,58,21.40
2019,06,13,13,59,21.30
2019,06,13,14,00,21.30
2019,06,13,14,01,21.20
2019,06,13,14,02,21.10
2019,06,13,14,03,21.00
2019,06,13,14,04,21.00
2019,06,13,14,05,21.00
2019,06,13,14,06,21.00
2019,06,13,14,07,20.90
2019,06,13,14,08,20.90
2019,06,13,14,09,20.90
2019,06,13,14,10,20.90
2019,06,13,14,11,20.90
2019,06,13,14,12,20.90
2019,06,13,14,13,20.90
2019,06,13,14,14,20.90
2019,06,13,14,15,20.80
2019,06,13,14,16,20.80
2019,06,13,14,17,20.80
2019,06,13,14,18,20.80
2019,06,13,14,19,20.90
2019,06,13,14,20,20.90
2019,06,13,14,21,21.00
2019,06,13,14,22,21.00
2019,06,13,14,23,21.10
2019,06,13,14,24,21.20
2019,06,13,14,25,21.30
2019,06,13,14,26,21.30
2019,06,13,14,27,21.30
2019,06,13,14,28,21.30
2019,06,13,14,29,21.40
2019,06,13,14,30,21.40
2019,06,13,14,31,21.40
2019,06,13,14,32,21.40
2019,06,13,14,33,21.40
2019,06,13,14,34,21.40
2019,06,13,14,35,21.40
2019,06,13,14,36,21.40
2019,06,13,14,37,21.40
2019,06,13,14,38,21.60
2019,06,13,14,39,21.60
2019,06,13,14,40,21.70
2019,06,13,14,41,21.80
2019,06,13,14,42,21.80
2019,06,13,14,43,21.90
2019,06,13,14,44,22.00
2019,06,13,14,45,22.00
2019,06,13,14,46,22.10
2019,06,13,14,47,22.20
2019,06,13,14,48,22.20
2019,06,13,14,49,22.30
2019,06,13,14,50,22.40
2019,06,13,14,51,22.40
2019,06,13,14,52,22.50
2019,06,13,14,53,22.60
2019,06,13,14,54,22.70
2019,06,13,14,55,22.80
2019,06,13,14,56,22.90
2019,06,13,14,57,22.90
2019,06,13,14,58,22.90
2019,06,13,14,59,22.90
2019,06,13,15,00,22.90
2019,06,13,15,01,22.90
2019,06,13,15,02,22.90
2019,06,13,15,03,22.90
2019,06,13,15,04,22.90
2019,06,13,15,05,22.80
2019,06,13,15,06,22.70
2019,06,13,15,07,22.60
2019,06,13,15,08,22.50
2019,06,13,15,09,22.40
2019,06,13,15,10,22.20
2019,06,13,15,11,22.10
2019,06,13,15,12,22.00
2019,06,13,15,13,21.90
2019,06,13,15,14,21.80
2019,06,13,15,15,21.70
2019,06,13,15,16,21.60
2019,06,13,15,17,21.60
2019,06,13,15,18,21.50
2019,06,13,15,19,21.40
2019,06,13,15,20,21.30
2019,06,13,15,21,21.30
2019,06,13,15,22,21.30
2019,06,13,15,23,21.30
2019,06,13,15,24,21.30
2019,06,13,15,25,21.10
2019,06,13,15,26,21.10
2019,06,13,15,27,21.00
2019,06,13,15,28,21.00
2019,06,13,15,29,21.00
2019,06,13,15,30,20.90
2019,06,13,15,31,20.90
2019,06,13,15,32,20.80
2019,06,13,15,33,20.80
2019,06,13,15,34,20.80
2019,06,13,15,35,20.80
2019,06,13,15,36,20.90
2019,06,13,15,37,20.90
2019,06,13,15,38,20.90
2019,06,13,15,39,20.80
2019,06,13,15,40,20.80
2019,06,13,15,41,20.80
2019,06,13,15,42,20.70
2019,06,13,15,43,20.70
2019,06,13,15,44,20.60
2019,06,13,15,45,20.60
2019,06,13,15,46,20.50
2019,06,13,15,47,20.50
2019,06,13,15,48,20.50
2019,06,13,15,49,20.50
2019,06,13,15,50,20.50
2019,06,13,15,51,20.60
2019,06,13,15,52,20.60
2019,06,13,15,53,20.60
2019,06,13,15,54,20.60
2019,06,13,15,55,20.70
2019,06,13,15,56,20.70
2019,06,13,15,57,20.70
2019,06,13,15,58,20.60
2019,06,13,15,59,20.60
2019,06,13,16,00,20.50
2019,06,13,16,01,20.50
2019,06,13,16,02,20.50
2019,06,13,16,03,20.50
2019,06,13,16,04,20.50
2019,06,13,16,05,20.50
2019,06,13,16,06,20.60
2019,06,13,16,07,20.60
2019,06,13,16,08,20.60
2019,06,13,16,09,20.60
2019,06,13,16,10,20.60
2019,06,13,16,11,20.60
2019,06,13,16,12,20.50
2019,06,13,16,13,20.50
2019,06,13,16,14,20.40
2019,06,13,16,15,20.40
2019,06,13,16,16,20.40
2019,06,13,16,17,20.40
2019,06,13,16,18,20.40
2019,06,13,16,19,20.40
2019,06,13,16,20,20.40
2019,06,13,16,21,20.50
2019,06,13,16,22,20.50
2019,06,13,16,23,20.50
2019,06,13,16,24,20.50
2019,06,13,16,25,20.50
2019,06,13,16,26,20.40
2019,06,13,16,27,20.30
2019,06,13,16,28,20.20
2019,06,13,16,29,20.20
2019,06,13,16,30,20.20
2019,06,13,16,31,20.20
2019,06,13,16,32,20.20
2019,06,13,16,33,20.20
2019,06,13,16,34,20.20
2019,06,13,16,35,20.20
2019,06,13,16,36,20.20
2019,06,13,16,37,20.20
2019,06,13,16,38,20.20
2019,06,13,16,39,20.20
2019,06,13,16,40,20.30
2019,06,13,16,41,20.30
2019,06,13,16,42,20.40
2019,06,13,16,43,20.40
2019,06,13,16,44,20.40
2019,06,13,16,45,20.40
2019,06,13,16,46,20.40
2019,06,13,16,47,20.50
2019,06,13,16,48,20.50
2019,06,13,16,49,20.40
2019,06,13,16,50,20.30
2019,06,13,16,51,20.30
2019,06,13,16,52,20.30
2019,06,13,16,53,20.20
2019,06,13,16,54,20.20
2019,06,13,16,55,20.20
2019,06,13,16,56,20.20
2019,06,13,16,57,20.20
2019,06,13,16,58,20.20
2019,06,13,16,59,20.30
2019,06,13,17,00,20.30
2019,06,13,17,01,20.40
2019,06,13,17,02,20.40
2019,06,13,17,03,20.50
2019,06,13,17,04,20.50
2019,06,13,17,05,20.50
2019,06,13,17,06,20.40
2019,06,13,17,07,20.40
2019,06,13,17,08,20.40
2019,06,13,17,09,20.40
2019,06,13,17,10,20.40
2019,06,13,17,11,20.40
2019,06,13,17,12,20.40
2019,06,13,17,13,20.30
2019,06,13,17,14,20.30
2019,06,13,17,15,20.20
2019,06,13,17,16,20.20
2019,06,13,17,17,20.20
2019,06,13,17,18,20.10
2019,06,13,17,19,20.10